| time (UTC) | temp F | wind direction | speed MPH | gust MPH | rain 1hr in | rain 24hr in | rain mn in | humidity % | barometer mb |
| 20260904010033 | 60 | 19 | 4.0 | 10.0 | 0.00 | 0.00 | 0.00 | 70 | 1011.3 |
| 20260904004514 | 60 | 338 | 6.0 | 11.0 | 0.00 | 0.00 | 0.00 | 66 | 1011.6 |
| 20260904003017 | 60 | 336 | 6.0 | 11.0 | 0.00 | 0.00 | 0.00 | 62 | 1011.4 |
| 20260904001518 | 60 | 351 | 6.0 | 10.0 | 0.00 | 0.00 | 0.00 | 63 | 1011.3 |
| 20260904000021 | 61 | 340 | 6.0 | 13.0 | 0.00 | 0.00 | 0.00 | 62 | 1011.4 |
| 20260903234532 | 61 | 22 | 8.0 | 11.0 | 0.00 | 0.00 | 0.00 | 61 | 1011.5 |
| 20260903233020 | 62 | 17 | 9.0 | 15.0 | 0.00 | 0.00 | 0.00 | 60 | 1011.6 |
| 20260903231520 | 62 | 43 | 8.0 | 14.0 | 0.00 | 0.00 | 0.00 | 60 | 1011.7 |
| 20260903230024 | 61 | 9 | 9.0 | 14.0 | 0.00 | 0.00 | 0.00 | 64 | 1012.0 |
| 20260903224523 | 62 | 42 | 8.0 | 12.0 | 0.00 | 0.00 | 0.00 | 64 | 1012.2 |
| 20260903223034 | 61 | 5 | 6.0 | 9.0 | 0.00 | 0.00 | 0.00 | 62 | 1012.6 |
| 20260903221529 | 61 | 338 | 4.0 | 11.0 | 0.00 | 0.00 | 0.00 | 63 | 1012.9 |
| 20260903220036 | 65 | 304 | 7.0 | 11.0 | 0.00 | 0.00 | 0.00 | 56 | 1012.6 |
| 20260903214527 | 65 | 238 | 5.0 | 13.0 | 0.00 | 0.00 | 0.00 | 53 | 1012.4 |
| 20260903213036 | 64 | 340 | 3.0 | 9.0 | 0.00 | 0.00 | 0.00 | 56 | 1012.1 |
| 20260903211555 | 65 | 19 | 5.0 | 11.0 | 0.00 | 0.00 | 0.00 | 56 | 1011.8 |
| 20260903210025 | 67 | 325 | 7.0 | 14.0 | 0.00 | 0.00 | 0.00 | 53 | 1011.8 |
| 20260903204524 | 67 | 325 | 3.0 | 6.0 | 0.00 | 0.00 | 0.00 | 49 | 1011.8 |
| 20260903203029 | 67 | 286 | 1.0 | 8.0 | 0.00 | 0.00 | 0.00 | 47 | 1011.8 |
| 20260903201530 | 65 | 254 | 4.0 | 8.0 | 0.00 | 0.00 | 0.00 | 48 | 1011.8 |
| 20260903200030 | 65 | 248 | 4.0 | 9.0 | 0.00 | 0.00 | 0.00 | 55 | 1012.1 |
| 20260903194528 | 63 | 251 | 3.0 | 8.0 | 0.00 | 0.00 | 0.00 | 58 | 1012.3 |
| 20260903193005 | 63 | 238 | 3.0 | 8.0 | 0.00 | 0.01 | 0.00 | 61 | 1012.5 |
| 20260903191530 | 62 | 352 | 2.0 | 7.0 | 0.00 | 0.04 | 0.00 | 60 | 1012.7 |
| 20260903190028 | 61 | 74 | 4.0 | 6.0 | 0.00 | 0.08 | 0.00 | 70 | 1012.7 |
| 20260903184528 | 59 | 19 | 0.0 | 3.0 | 0.00 | 0.15 | 0.00 | 72 | 1013.1 |
| 20260903183026 | 59 | 57 | 1.0 | 3.0 | 0.00 | 0.17 | 0.00 | 73 | 1013.2 |
| 20260903181519 | 56 | 38 | 3.0 | 4.0 | 0.00 | 0.17 | 0.00 | 80 | 1013.0 |
| 20260903180019 | 54 | 13 | 2.0 | 5.0 | 0.00 | 0.17 | 0.00 | 83 | 1013.3 |
| 20260903174532 | 54 | 86 | 3.0 | 7.0 | 0.00 | 0.17 | 0.00 | 84 | 1013.3 |
| 20260903173023 | 53 | 36 | 5.0 | 7.0 | 0.00 | 0.17 | 0.00 | 85 | 1013.3 |
| 20260903171535 | 53 | 334 | 2.0 | 5.0 | 0.00 | 0.17 | 0.00 | 87 | 1013.3 |
| 20260903170040 | 53 | 315 | 2.0 | 4.0 | 0.00 | 0.17 | 0.00 | 86 | 1013.2 |
| 20260903164538 | 52 | 12 | 2.0 | 4.0 | 0.00 | 0.17 | 0.00 | 87 | 1013.1 |
| 20260903163027 | 51 | 22 | 2.0 | 3.0 | 0.00 | 0.17 | 0.00 | 88 | 1013.1 |
| 20260903161526 | 51 | 292 | 2.0 | 3.0 | 0.00 | 0.17 | 0.00 | 88 | 1012.9 |
| 20260903160021 | 51 | 352 | 0.0 | 2.0 | 0.00 | 0.17 | 0.00 | 89 | 1012.8 |
| 20260903154515 | 51 | 62 | 1.0 | 3.0 | 0.00 | 0.17 | 0.00 | 88 | 1012.7 |
| 20260903153036 | 51 | 239 | 2.0 | 4.0 | 0.00 | 0.17 | 0.00 | 88 | 1012.7 |
| 20260903151542 | 50 | 136 | 0.0 | 2.0 | 0.00 | 0.17 | 0.00 | 88 | 1012.6 |
| 20260903150032 | 50 | 230 | 0.0 | 2.0 | 0.00 | 0.17 | 0.00 | 89 | 1012.8 |
| 20260903144532 | 49 | 225 | 0.0 | 2.0 | 0.00 | 0.17 | 0.00 | 91 | 1012.9 |
| 20260903143029 | 49 | 87 | 0.0 | 3.0 | 0.00 | 0.17 | 0.00 | 92 | 1012.7 |
| 20260903141530 | 48 | 239 | 1.0 | 2.0 | 0.00 | 0.17 | 0.00 | 92 | 1012.5 |
| 20260903140027 | 48 | 299 | 1.0 | 2.0 | 0.00 | 0.17 | 0.00 | 92 | 1012.4 |
| 20260903134527 | 48 | 111 | 2.0 | 2.0 | 0.00 | 0.17 | 0.00 | 93 | 1012.2 |
| 20260903133017 | 47 | 131 | 1.0 | 3.0 | 0.00 | 0.17 | 0.00 | 92 | 1012.1 |
| 20260903131514 | 47 | 256 | 2.0 | 2.0 | 0.00 | 0.17 | 0.00 | 92 | 1012.1 |
| 20260903130013 | 47 | 241 | 2.0 | 5.0 | 0.00 | 0.17 | 0.00 | 91 | 1011.7 |
| 20260903124508 | 47 | 232 | 0.0 | 2.0 | 0.00 | 0.17 | 0.00 | 91 | 1011.5 |
| 20260903123008 | 47 | 236 | 0.0 | 2.0 | 0.00 | 0.17 | 0.00 | 90 | 1011.6 |
| 20260903121504 | 48 | 248 | 3.0 | 3.0 | 0.00 | 0.17 | 0.00 | 90 | 1011.8 |
| 20260903120029 | 48 | 53 | 0.0 | 1.0 | 0.00 | 0.17 | 0.00 | 89 | 1011.5 |
| 20260903114526 | 48 | 5 | 1.0 | 3.0 | 0.00 | 0.17 | 0.00 | 89 | 1011.5 |
| 20260903113025 | 49 | 298 | 2.0 | 3.0 | 0.00 | 0.17 | 0.00 | 88 | 1011.7 |
| 20260903111533 | 49 | 9 | 0.0 | 3.0 | 0.00 | 0.17 | 0.00 | 88 | 1011.8 |
| 20260903110016 | 49 | 341 | 1.0 | 2.0 | 0.00 | 0.17 | 0.00 | 88 | 1011.5 |
| 20260903104509 | 48 | 26 | 1.0 | 3.0 | 0.00 | 0.17 | 0.00 | 88 | 1011.5 |
| 20260903103010 | 49 | 90 | 2.0 | 3.0 | 0.00 | 0.17 | 0.00 | 86 | 1011.4 |
| 20260903101506 | 49 | 236 | 0.0 | 2.0 | 0.00 | 0.17 | 0.00 | 85 | 1011.3 |
| 20260903100028 | 49 | 250 | 1.0 | 3.0 | 0.00 | 0.17 | 0.00 | 85 | 1011.3 |
| 20260903094530 | 49 | 226 | 1.0 | 2.0 | 0.00 | 0.17 | 0.00 | 84 | 1011.2 |
| 20260903093035 | 49 | 92 | 1.0 | 3.0 | 0.00 | 0.17 | 0.00 | 85 | 1011.1 |
| 20260903091531 | 49 | 103 | 2.0 | 3.0 | 0.00 | 0.17 | 0.00 | 84 | 1011.2 |
| 20260903090018 | 49 | 109 | 1.0 | 2.0 | 0.00 | 0.17 | 0.00 | 84 | 1011.2 |
| 20260903084514 | 49 | 255 | 0.0 | 2.0 | 0.00 | 0.17 | 0.00 | 83 | 1011.3 |
| 20260903083012 | 50 | 318 | 2.0 | 3.0 | 0.00 | 0.17 | 0.00 | 81 | 1011.3 |
| 20260903081531 | 50 | 153 | 0.0 | 2.0 | 0.00 | 0.17 | 0.00 | 80 | 1011.3 |
| 20260903080033 | 50 | 144 | 1.0 | 4.0 | 0.00 | 0.17 | 0.00 | 81 | 1011.4 |
| 20260903074528 | 50 | 267 | 4.0 | 5.0 | 0.00 | 0.17 | 0.00 | 80 | 1011.3 |
| 20260903073039 | 50 | 129 | 1.0 | 3.0 | 0.00 | 0.17 | 0.00 | 79 | 1011.2 |
| 20260903071526 | 49 | 150 | 2.0 | 4.0 | 0.00 | 0.17 | 0.00 | 81 | 1011.2 |
| 20260903070028 | 49 | 134 | 1.0 | 3.0 | 0.00 | 0.17 | 0.00 | 85 | 1011.2 |
| 20260903064519 | 50 | 225 | 1.0 | 4.0 | 0.00 | 0.17 | 0.00 | 83 | 1011.3 |
| 20260903063015 | 50 | 132 | 3.0 | 4.0 | 0.00 | 0.17 | 0.00 | 79 | 1011.2 |
| 20260903061553 | 51 | 127 | 2.0 | 2.0 | 0.00 | 0.17 | 0.00 | 79 | 1011.2 |
| 20260903060034 | 51 | 130 | 2.0 | 3.0 | 0.00 | 0.17 | 0.00 | 81 | 1011.3 |
| 20260903054531 | 51 | 234 | 2.0 | 7.0 | 0.00 | 0.17 | 0.17 | 81 | 1011.3 |
| 20260903053029 | 51 | 225 | 1.0 | 3.0 | 0.00 | 0.17 | 0.17 | 83 | 1011.5 |
| 20260903051529 | 52 | 225 | 1.0 | 3.0 | 0.00 | 0.17 | 0.17 | 83 | 1011.6 |
| 20260903050027 | 52 | 219 | 4.0 | 6.0 | 0.00 | 0.17 | 0.17 | 78 | 1011.6 |
| 20260903044523 | 53 | 230 | 2.0 | 3.0 | 0.00 | 0.17 | 0.17 | 78 | 1011.7 |
| 20260903043019 | 53 | 205 | 0.0 | 6.0 | 0.00 | 0.17 | 0.17 | 77 | 1011.8 |
| 20260903041514 | 52 | 148 | 2.0 | 4.0 | 0.00 | 0.17 | 0.17 | 82 | 1011.7 |
| 20260903040016 | 52 | 135 | 2.0 | 6.0 | 0.00 | 0.17 | 0.17 | 83 | 1011.8 |
| 20260903034512 | 54 | 352 | 1.0 | 3.0 | 0.00 | 0.17 | 0.17 | 80 | 1011.5 |
| 20260903033005 | 54 | 315 | 0.0 | 3.0 | 0.00 | 0.18 | 0.17 | 80 | 1011.7 |
| 20260903031505 | 54 | 111 | 1.0 | 2.0 | 0.00 | 0.20 | 0.17 | 79 | 1011.8 |
| 20260903030100 | 55 | 44 | 3.0 | 5.0 | 0.00 | 0.23 | 0.17 | 77 | 1011.7 |
| 20260903024527 | 56 | 28 | 3.0 | 4.0 | 0.00 | 0.26 | 0.17 | 76 | 1011.5 |
| 20260903023023 | 57 | 73 | 2.0 | 2.0 | 0.00 | 0.28 | 0.17 | 74 | 1011.5 |
| 20260903021520 | 58 | 46 | 2.0 | 4.0 | 0.00 | 0.32 | 0.17 | 71 | 1011.3 |
| 20260903020016 | 59 | 16 | 2.0 | 4.0 | 0.00 | 0.33 | 0.17 | 69 | 1011.3 |
| 20260903014511 | 60 | 38 | 3.0 | 5.0 | 0.00 | 0.34 | 0.17 | 68 | 1011.3 |
| 20260903013016 | 62 | 13 | 3.0 | 7.0 | 0.00 | 0.35 | 0.17 | 62 | 1011.2 |
| 20260903011512 | 63 | 295 | 1.0 | 3.0 | 0.00 | 0.38 | 0.17 | 55 | 1011.1 |